TITAN 3C TRANSTAGE DEB, 43452

Orbit data source: Space-Track

TITAN 3C TRANSTAGE DEB, 43452 is space debris in GEO originally from a launch on Sun, 09 Feb 1969 UTC launched from the Air Force Eastern Test Range (AFETR). Debris objects in space refer to the collection of defunct objects orbiting the Earth. Examples of debris include non-operational satellites, rocket bodies, and fragments generated from explosions, collisions, or faulty payload assembly.

Loading next visibility...
Identifier
43452, 1969-013K
Orbit
GEO
Last TLE update
1 day ago
Origin
Manufacturer
Martin Marietta
Mission
Spacecraft
Bus & Motor
Unknown
Mass
Unknown
Launch date (UTC)
1969-02-09 (56 years ago)
Launch vehicle
Unknown
Launch site
Air Force Eastern Test Range (AFETR)
Object type
Payload
Rocket body
Debris
Shape & HBR
Unknown
Radar Cross Section
RCS unknown

Expand to show TLE details & history

TLE from 1 day ago
0 TITAN 3C TRANSTAGE DEB
1 43452U 69013K   25185.58367633 -.00000185  00000-0  00000-0 0  9994
2 43452   0.6094 177.6846 0583772 291.3648 257.3836  1.03161610 27218
Epoch: 2025-07-04T14:00Z
TLE epoch observation values (Epoch: 2025-07-04T14:00:29.634Z)
Latitude
-0.02902°
Longitude
-132.95768°
Altitude
35,652.869 km
Speed
3.055 km/s
True Right ascension
23h 59m 59s
True Declination
0° 01' 44"
Sunlit
Object was in daylight at epoch
Visualization orbit readout
Latitude
-0.3014°
Longitude
13.34444°
Altitude
33,016.791 km
Speed
3.256 km/s
Apparent Right ascension
09h 43m 10s
Apparent Declination
-7° 04' 01"
Sunlit
Object is in daylight
Visualization observer readout
Local Sidereal Time
09:59:30
Azimuth
185.528° SSW
Elevation
42.866°
Doppler factor
1
Orbital elements
Apogee altitude
37,411.876 km
Perigee altitude
32,581.2 km
Semi-major axis
41,374.675 km
Eccentricity
0.05838
Inclination
0.6094°
RAAN
177.6846°
Arg. of periapsis
291.3648°
True anomaly
Unknown
Mean anomaly
257.3836°
Eccentric anomaly
Unknown
Mean motion
0.25789 °/min
Orbital period
1,395.92 mins
BSTAR
0
Loading historical data...
43452 neighbors
Loading maneuver chart data...
Loading SW <> Apogee altitude chart data...

TITAN 3C TRANSTAGE DEB Visibility forecast

Observer location: undefined°, undefined°

Span
Click to sort rows by Start time (UTC) header in descending order
Start Az.
Max El. time (UTC)
Max El. Az.
Max El.
End time (UTC)
End Az.
1440 mins2025-07-05 22:03:22.347Z185.526° SSW2025-07-06 06:06:22.347Z182.617° SSW35.119°2025-07-06 22:03:22.347Z167.866° S
|